Notices

What’s New in latest Release from January 14th 2021:

·       In Historical Hourly Data Report, users can switch between Local Standard Time (LST) and Universal Time Coordinates (UTC) time.

·       In Historical Hourly Data Report, we have an addition of a new column to display hourly precipitation data for the stations where the data are available, from 2001 onwards.

·       Expanded the Search Options of the Canadian Historical Weather Radar, users now able to select 24 hours (1 image every hour) image viewing duration.

Please note that the IDF dataset is available through this link: Intensity-Duration-Frequency (IDF) Files .

Hourly Data Report for January 16, 2021

EDMUNDSTON
NEW BRUNSWICK
Current Station Operator: ECCC - MSC

47°25'00.000" N
68°19'28.040" W
154.20 m
8101303
71590
ERM

Download Data

Hourly Data (January 2021)
Hourly Data Report for January 16, 2021
TIME
LST
Temp Definition
°C
Dew Point Definition
°C
Rel Hum Definition
%
Precip. Amount Definition
mm

Wind Dir Definition
10's deg

Wind Spd Definition
km/h
Visibility Definition
km
Stn Press Definition
kPa
Hmdx Definition


Wind Chill Definition


Weather Definition


00:00 -4.5 LegendMM LegendMM 0.0 0 1   100.19   -5 LegendNANA
01:00 -4.2 LegendMM LegendMM 0.0   0   100.11     LegendNANA
02:00 -4.5 LegendMM LegendMM 0.0 10 3   100.09   -6 LegendNANA
03:00 -7.0 LegendMM LegendMM 0.0 32 2   100.03   -8 LegendNANA
04:00 -8.1 LegendMM LegendMM 0.0 0 1   100.03   -9 LegendNANA
05:00 -7.7 LegendMM LegendMM 0.0 30 2   99.88   -9 LegendNANA
06:00 -7.6 LegendMM LegendMM 0.0 36 1   99.94   -8 LegendNANA
07:00 -5.0 LegendMM LegendMM 0.0 11 4   99.83   -7 LegendNANA
08:00 -4.4 LegendMM LegendMM 0.0 12 4   99.72   -6 LegendNANA
09:00 -4.5 LegendMM LegendMM 0.0 12 5   99.90   -7 LegendNANA
10:00 -3.4 LegendMM LegendMM 0.0 13 7   99.73   -6 LegendNANA
11:00
12:00 -1.7 -6.7 68 0.0 13 8   99.49   -5 LegendNANA
13:00 -1.0 -7.1 63 0.0 11 13   99.32   -5 LegendNANA
14:00 -1.1 -7.0 64 0.0 12 13   99.12   -5 LegendNANA
15:00 -1.0 -7.0 64 0.0 10 10   99.06   -5 LegendNANA
16:00 -1.1 -7.2 63 0.0 10 11   98.90   -5 LegendNANA
17:00 -1.2 -7.1 64 0.0 10 12   98.78   -5 LegendNANA
18:00 -1.5 -6.8 67 0.0 10 14   98.55   -6 LegendNANA
19:00 -1.9 -6.4 71 0.0 10 15   98.28   -7 LegendNANA
20:00 -2.2 -5.1 80 1.0 9 6   98.14   -5 LegendNANA
21:00 -1.9 -4.2 84 4.0 10 10   97.92   -6 LegendNANA
22:00 -1.7 -4.2 83 1.2 7 6   97.71   -4 LegendNANA
23:00 -1.2 -3.1 87 2.4 9 9   97.45   -4 LegendNANA

Notes on Data Quality.

Legend

  • E = Estimated
  • M = Missing
  • NA = Not Available*
  • [empty] = Indicates an unobserved value
Date modified: